Location: Winthrop
(48.4780°N, 120.1850°W)
Time: 20:54:35
(UTC-08:00)

Explorer 7 - Visible Passes

Search period start: 29 January 2023 00:00
Search period end: 08 February 2023 00:00
Orbit: 480 x 660 km, 50.3° (Epoch: 29 January)

Date Brightness Start Highest point End Pass type
(mag) Time Alt. Az. Time Alt. Az. Time Alt. Az.
29 Jan 7.2 17:54:38 10° WNW 17:59:17 87° SSW 18:03:53 11° ESE visible
29 Jan 8.5 19:35:09 10° W 19:39:22 32° SW 19:39:59 31° SSW visible
30 Jan 7.3 17:55:40 10° WNW 18:00:16 74° SSW 18:05:03 10° ESE visible
30 Jan 9.0 19:36:24 10° W 19:40:11 24° SW 19:41:34 21° SSW visible
31 Jan 7.7 17:56:41 10° WNW 18:01:14 59° SSW 18:05:56 10° SE visible
31 Jan 9.6 19:37:50 10° W 19:40:57 18° SW 19:43:20 13° S visible
01 Feb 8.2 17:57:43 10° WNW 18:02:08 46° SSW 18:06:41 10° SE visible
01 Feb 9.9 19:39:47 10° WSW 19:41:40 12° SW 19:43:34 10° SSW visible
02 Feb 8.7 17:58:48 10° W 18:03:00 34° SW 18:07:17 10° SSE visible
03 Feb 9.3 17:59:58 10° W 18:03:47 26° SW 18:07:42 10° SSE visible
04 Feb 9.9 18:01:19 10° W 18:04:33 19° SW 18:07:50 10° S visible
05 Feb 10.1 18:03:03 10° WSW 18:05:15 13° SW 18:07:28 10° SSW visible
